Location: Bishausen
(51.6334°N, 9.9631°E)
Time: 12:53:14
(UTC+00:00)

SR 8 - Visible Passes

Search period start: 03 October 2024 00:00
Search period end: 13 October 2024 00:00
Orbit: 661 x 848 km, 59.7° (Epoch: 02 October)

Date Brightness Start Highest point End Pass type
(mag) Time Alt. Az. Time Alt. Az. Time Alt. Az.
03 Oct 8.7 17:27:12 10° WNW 17:32:10 34° N 17:36:53 10° ENE visible
03 Oct 8.0 19:11:30 10° NW 19:16:37 46° NNE 19:17:36 41° NE visible
03 Oct 9.3 20:55:11 10° WNW 20:57:32 26° WNW 20:57:32 26° WNW visible
04 Oct 8.3 18:29:07 10° NW 18:34:09 40° NNE 18:36:39 24° ENE visible
04 Oct 8.3 20:12:51 10° NW 20:16:35 47° WNW 20:16:35 47° WNW visible
05 Oct 8.4 17:46:41 10° WNW 17:51:39 36° N 17:55:45 13° ENE visible
05 Oct 7.4 19:30:32 10° NW 19:35:41 73° NNE 19:35:41 73° NNE visible
05 Oct 9.9 21:14:28 10° WNW 21:15:37 15° WNW 21:15:37 15° WNW visible
06 Oct 7.6 18:48:12 10° NW 18:53:27 58° NNE 18:54:48 43° E visible
06 Oct 9.1 20:31:57 10° WNW 20:34:44 28° W 20:34:44 28° W visible
07 Oct 7.9 18:05:52 10° NW 18:11:01 47° NNE 18:13:57 23° E visible
07 Oct 8.0 19:49:33 10° WNW 19:53:53 53° W 19:53:53 53° W visible
08 Oct 8.2 17:23:29 10° NW 17:28:34 41° NNE 17:33:08 11° E visible
08 Oct 7.2 19:07:12 10° NW 19:12:28 83° SW 19:13:05 68° SSE visible
08 Oct 9.9 20:51:37 10° WNW 20:53:01 15° W 20:53:01 15° W visible
09 Oct 7.4 18:24:52 10° NW 18:30:10 76° NE 18:32:19 35° ESE visible
09 Oct 9.1 20:08:51 10° WNW 20:12:16 26° WSW 20:12:16 26° WSW visible
10 Oct 7.6 17:42:32 10° NW 17:47:49 60° NNE 17:51:37 17° ESE visible
10 Oct 8.2 19:26:19 10° WNW 19:31:08 40° SW 19:31:33 40° SW visible
11 Oct 7.9 17:00:11 10° NW 17:05:24 49° NNE 17:10:19 10° E visible
11 Oct 7.8 18:43:53 10° WNW 18:49:01 57° SW 18:50:55 35° SSE visible
11 Oct 10.0 20:29:31 10° W 20:30:52 12° WSW 20:30:52 12° WSW visible
12 Oct 7.5 18:01:31 10° NW 18:06:48 79° SW 18:10:22 19° SE visible
12 Oct 9.4 19:46:01 10° WNW 19:49:28 18° WSW 19:50:19 18° SW visible
